TimeCDT,TemperatureF,Dew PointF,Humidity,Sea Level PressureIn,VisibilityMPH,Wind Direction,Wind SpeedMPH,Gust SpeedMPH,PrecipitationIn,Events,Conditions,WindDirDegrees,DateUTC
12:54 AM,73.9,57.9,57,29.95,10.0,SSE,11.5,-,N/A,,Overcast,150,2013-08-23 05:54:00
1:54 AM,72.0,57.9,61,29.94,10.0,SSE,9.2,-,N/A,,Clear,150,2013-08-23 06:54:00
2:54 AM,70.0,57.9,65,29.94,10.0,SSE,8.1,-,N/A,,Mostly Cloudy,160,2013-08-23 07:54:00
3:54 AM,69.1,57.9,68,29.93,10.0,SSE,8.1,-,N/A,,Clear,160,2013-08-23 08:54:00
4:54 AM,69.1,57.0,65,29.91,10.0,SSE,4.6,-,N/A,,Clear,160,2013-08-23 09:54:00
5:54 AM,66.9,57.9,73,29.93,10.0,SSE,8.1,-,N/A,,Clear,160,2013-08-23 10:54:00
6:54 AM,66.9,60.1,79,29.94,10.0,NNE,5.8,-,N/A,,Partly Cloudy,20,2013-08-23 11:54:00
7:54 AM,66.0,61.0,84,29.94,10.0,East,6.9,-,N/A,,Clear,90,2013-08-23 12:54:00
8:54 AM,69.1,60.1,73,29.94,10.0,SE,12.7,-,N/A,,Clear,140,2013-08-23 13:54:00
9:54 AM,72.0,59.0,64,29.94,10.0,SSE,10.4,-,N/A,,Clear,150,2013-08-23 14:54:00
10:54 AM,75.9,60.1,58,29.95,10.0,South,12.7,-,N/A,,Clear,180,2013-08-23 15:54:00
11:54 AM,81.0,60.1,49,29.94,10.0,SSW,11.5,-,N/A,,Clear,200,2013-08-23 16:54:00
12:54 PM,86.0,63.0,46,29.92,10.0,South,16.1,19.6,N/A,,Clear,190,2013-08-23 17:54:00
1:54 PM,89.1,64.9,45,29.91,10.0,South,11.5,20.7,N/A,,Clear,180,2013-08-23 18:54:00
2:54 PM,91.9,57.9,32,29.89,10.0,SSW,19.6,26.5,N/A,,Clear,200,2013-08-23 19:54:00
3:54 PM,93.9,57.0,29,29.87,10.0,South,18.4,24.2,N/A,,Clear,190,2013-08-23 20:54:00
4:54 PM,93.9,54.0,26,29.85,10.0,South,16.1,-,N/A,,Clear,180,2013-08-23 21:54:00
5:54 PM,93.0,53.1,26,29.85,10.0,South,16.1,25.3,N/A,,Clear,170,2013-08-23 22:54:00
6:54 PM,91.0,51.1,25,29.84,10.0,South,13.8,21.9,N/A,,Clear,170,2013-08-23 23:54:00
7:54 PM,86.0,53.1,32,29.86,10.0,SSE,9.2,-,N/A,,Clear,160,2013-08-24 00:54:00
8:54 PM,80.1,55.0,42,29.88,10.0,SSE,9.2,-,N/A,,Clear,150,2013-08-24 01:54:00
9:54 PM,77.0,57.9,52,29.91,10.0,SSE,10.4,-,N/A,,Clear,160,2013-08-24 02:54:00
10:54 PM,77.0,57.0,50,29.91,10.0,SSE,10.4,-,N/A,,Clear,160,2013-08-24 03:54:00
11:54 PM,73.9,57.0,55,29.91,10.0,South,9.2,-,N/A,,Clear,170,2013-08-24 04:54:00